This demonstration page uses our WeatherBlox Daily Observations layout. Learn more.

Left ArrowRight Arrow

39.92423, -83.80882

Hourly Observations for June 6, 2022

Temp ( °F °C ) Dew Point ( °F °C ) Humidity (%) Winds ( mph kmh ) Pressure ( in mb ) Visibility ( mi km ) Precip ( " mm )
12:56 am 00:56 Mostly Cloudy 69 20.6 53 11.7 57 57 SE 9 15 29.86 1011 10 16 0.00 0.00
1:56 am 01:56 Mostly Clear 67 19.4 53 11.7 61 61 SE 8 13 29.86 1011 10 16 0.00 0.00
2:56 am 02:56 Partly Cloudy 66 18.9 54 12.2 65 65 SSE 6 9 29.85 1011 10 16 0.00 0.00
3:56 am 03:56 Clear 66 18.9 54 12.2 65 65 SSE 6 9 29.84 1011 10 16 0.00 0.00
4:56 am 04:56 Cloudy 66 18.9 55 12.8 68 68 S 7 11 29.84 1011 10 16 0.00 0.00
5:56 am 05:56 Mostly Clear 65 18.3 55 12.8 70 70 SSE 7 11 29.84 1010 10 16 0.00 0.00
6:56 am 06:56 Mostly Cloudy 66 18.9 56 13.3 70 70 SSE 8 13 29.84 1010 10 16 0.00 0.00
7:56 am 07:56 Mostly Sunny 69 20.6 56 13.3 63 63 S 9 15 29.85 1011 10 16 0.00 0.00
8:56 am 08:56 Cloudy 70 21.1 59 15 68 68 SSW 7 11 29.87 1012 10 16 0.00 0.00
9:56 am 09:56 Mostly Cloudy 74 23.3 62 16.7 67 67 SSW 10 17 29.85 1011 10 16 0.00 0.00
10:56 am 10:56 Partly Cloudy 78 25.6 63 17.2 60 60 SSW 9 15 29.86 1011 10 16 0.00 0.00
11:56 am 11:56 Cloudy 79 26.1 64 17.8 60 60 SSW 14 22 29.85 1011 10 16 0.00 0.00
12:56 pm 12:56 Mostly Cloudy 78 25.6 66 18.9 67 67 SW 10 17 29.85 1011 10 16 0.00 0.00
1:56 pm 13:56 Mostly Cloudy 81 27.2 64 17.8 57 57 SW 18 30 29.83 1010 10 16 0.00 0.00
2:07 pm 14:07 Mostly Cloudy with Nearby Thunderstorms 75 24 61 16 61 61 S 16 26 29.81 1009 10 16 0.00 0.00
2:22 pm 14:22 Mostly Sunny 72 22 63 17 73 73 SSW 12 19 29.81 1010 10 16 0.00 0.00
2:56 pm 14:56 Sunny 71 21.7 65 18.3 81 81 S 12 19 29.83 1010 10 16 0.00 0.00
3:56 pm 15:56 Sunny 74 23.3 68 20 82 82 S 13 20 29.81 1009 10 16 0.00 0.00
4:56 pm 16:56 Sunny 77 25 66 18.9 69 69 S 9 15 29.81 1010 10 16 0.00 0.00
5:48 pm 17:48 Mostly Cloudy with Nearby Thunderstorms 70 21 63 17 78 78 SW 24 39 29.79 1009 10 16 0.00 0.00
5:56 pm 17:56 Mostly Cloudy with Nearby Thunderstorms 68 20 67 19.4 96 96 SW 17 28 29.81 1010 10 16 0.00 0.00
6:03 pm 18:03 Mostly Cloudy with Rain 66 19 66 19 100 100 SW 14 22 29.80 1009 10 16 0.03 0.76
6:56 pm 18:56 Cloudy with Light Rain N/A N/A N/A SSW 7 11 N/A 10 16 0.06 1.52
7:56 pm 19:56 Mostly Sunny 66 19 N/A N/A S 8 13 29.80 1009 10 16 0.00 0.00
8:56 pm 20:56 Cloudy with Light Rain 66 19 N/A N/A SSE 9 15 29.80 1009 10 16 0.00 0.00
9:56 pm 21:56 Partly Cloudy 66 19 N/A N/A SSE 12 19 29.81 1009 10 16 0.00 0.00
10:13 pm 22:13 Mostly Cloudy with Nearby Thunderstorms 66 19 N/A N/A SSE 15 24 29.81 1009 10 16 0.00 0.00
10:35 pm 22:35 Cloudy with Light Rain 66 19 N/A N/A S 10 17 29.81 1009 10 16 0.01 0.25
10:53 pm 22:53 Cloudy with Rain 66 19 N/A N/A S 8 13 29.81 1009 7 11 0.08 2.03
10:56 pm 22:56 Cloudy with Rain 66 19 N/A N/A S 9 15 29.81 1010 7 11 0.08 2.03
11:26 pm 23:26 Cloudy with Light Rain N/A N/A N/A SSW 9 15 N/A 10 16 0.03 0.76
11:56 pm 23:56 Cloudy with Light Rain 64 18 N/A N/A SSW 10 17 29.81 1009 10 16 0.05 1.27

Powered by AerisWeather